Regional Weather Roundup
Issued by NWS

Home | Current Version | Previous Version | Text Only | Print | Product List | Glossary On
Versions: 1 2 3 4 5 6 7 8 9 10 11 12 13 14 15 16 17 18 19 20 21 22 23 24 25 26 27 28 29 30 31 32 33 34 35 36 37 38 39 40 41 42 43 44 45 46 47 48 49 50
000
ASUS46 KPQR 031510
RWROR

OREGON REGIONAL WEATHER ROUNDUP
NATIONAL WEATHER SERVICE PORTLAND OR
800 AM PDT MON AUG 03 2015

NOTE: "FAIR" INDICATES FEW OR NO CLOUDS BELOW 12,000 FEET WITH
NO SIGNIFICANT WEATHER AND/OR OBSTRUCTIONS TO VISIBILITY.

ORZ001>013-031600-
NORTHWEST OREGON


CITY           SKY/WX    TMP DP  RH WIND       PRES   REMARKS
ASTORIA        CLOUDY    62  58  86 NW12      29.97R
NEWPORT        CLOUDY    54  54 100 CALM      29.99R FOG
PORTLAND       CLOUDY    67  55  65 VRB3      29.93R
VANCOUVER WA   CLOUDY    66  54  65 CALM      29.93R
SCAPPOOSE      CLOUDY    64  54  69 N7        29.92S
HILLSBORO      CLOUDY    65  57  75 NE3       29.92S
AURORA         CLOUDY    68  58  70 NE6       29.93R
MCMINNVILLE    CLOUDY    66  58  75 CALM      29.93R
SALEM          CLOUDY    69  58  67 CALM      29.91R
CORVALLIS      CLOUDY    64  55  72 NW7       29.94S
EUGENE         CLOUDY    65  57  75 S7        29.93R
$$

ORZ021-028-031600-
SOUTHWEST OREGON


CITY           SKY/WX    TMP DP  RH WIND       PRES   REMARKS
NORTH BEND     CLOUDY    57  57 100 N7        29.98R
BROOKINGS      CLOUDY    58  58 100 CALM      29.97R FOG
ROSEBURG       PTSUNNY   65  60  84 SE3       29.93S
SEXTON SUMMIT  PTSUNNY   67  54  63 CALM      30.02S HAZE
MEDFORD        HAZE      68  61  78 CALM      29.92S VSB 1/2
$$

ORZ014>016-041-031600-
COLUMBIA GORGE


CITY           SKY/WX    TMP DP  RH WIND       PRES   REMARKS
TROUTDALE      CLOUDY    68  55  63 W3        29.91S
THE DALLES     CLOUDY    77  52  41 NW18      29.81R
$$

ORZ029>031-041-044-049-050-061>064-502-503-505>511-031600-
EASTERN OREGON


CITY           SKY/WX    TMP DP  RH WIND       PRES   REMARKS
REDMOND        CLOUDY    74  47  38 S5        29.99R
BEND           CLOUDY    70  50  49 CALM      30.01R
PRINEVILLE     CLOUDY    70  45  40 NE5       29.99R
KLAMATH FALLS  PTSUNNY   60  53  77 CALM      30.06R
LAKEVIEW       MOSUNNY   59  54  82 CALM      30.09R
HERMISTON      CLOUDY    78  51  38 SW8       29.78R
PENDLETON      CLOUDY    74  39  28 SE3       29.83R
JOHN DAY       CLOUDY    71  40  32 S6        29.98R
MEACHAM        CLOUDY    59  45  59 CALM      29.96S
LA GRANDE      CLOUDY    75  36  23 NW12      29.89R
BAKER CITY     CLOUDY    68  47  46 SW3       29.92R
BURNS          CLOUDY    73  41  31 W14       30.00F
ROME             N/A     72  51  47 SW5       30.01R
ONTARIO        CLOUDY    76  52  43 S8        29.86R
$$



USA.gov is the U.S. government's official web portal to all federal, state and local government web resources and services.